This demonstration page uses our WeatherBlox Daily Observations layout. Learn more.

Left ArrowRight Arrow

40.97296, -117.73568

Hourly Observations for August 28, 2020

Temp ( °F °C ) Dew Point ( °F °C ) Humidity (%) Winds ( mph kmh ) Pressure ( in mb ) Visibility ( mi km ) Precip ( " mm )
12:56 am 00:56 Clear 71 21.7 38 3.3 30 30 NNW 6 9 29.83 1010 10 16 0.00 0.00
1:56 am 01:56 Clear 68 20 40 4.4 36 36 N 6 9 29.83 1010 10 16 0.00 0.00
2:56 am 02:56 Clear 68 20 42 5.6 39 39 N 7 11 29.83 1010 10 16 0.00 0.00
3:56 am 03:56 Clear 68 20 43 6.1 40 40 NNE 8 13 29.85 1011 10 16 0.00 0.00
4:56 am 04:56 Clear 68 20 42 5.6 39 39 NNE 13 20 29.85 1011 10 16 0.00 0.00
5:56 am 05:56 Clear 65 18.3 42 5.6 43 43 NNE 7 11 29.87 1012 10 16 0.00 0.00
6:56 am 06:56 Sunny 66 18.9 42 5.6 42 42 NE 13 20 29.88 1012 10 16 0.00 0.00
7:56 am 07:56 Mostly Sunny 69 20.6 42 5.6 38 38 ENE 6 9 29.91 1013 10 16 0.00 0.00
8:56 am 08:56 Partly Cloudy 71 21.7 43 6.1 36 36 Calm 29.91 1013 10 16 0.00 0.00
9:56 am 09:56 Sunny 71 21.7 43 6.1 36 36 Calm 29.91 1013 10 16 0.00 0.00
10:56 am 10:56 Sunny 79 26.1 43 6.1 28 28 NE 8 13 29.89 1012 10 16 0.00 0.00
11:56 am 11:56 Mostly Sunny 82 27.8 41 5 23 23 N 5 7 29.87 1012 10 16 0.00 0.00
12:56 pm 12:56 Mostly Sunny 81 27.2 42 5.6 25 25 NW 6 9 29.87 1012 10 16 0.00 0.00
1:56 pm 13:56 Sunny 86 30 40 4.4 20 20 NNE 9 15 29.84 1011 10 16 0.00 0.00
2:56 pm 14:56 Sunny 91 32.8 33 0.6 13 13 NE 6 9 29.80 1009 10 16 0.00 0.00
3:56 pm 15:56 Mostly Sunny 91 32.8 33 0.6 13 13 VRB 3 6 29.78 1009 10 16 0.00 0.00
4:56 pm 16:56 Mostly Sunny 91 32.8 33 0.6 13 13 NE 5 7 29.77 1008 10 16 0.00 0.00
5:15 pm 17:15 Partly Cloudy with Nearby Thunderstorms 91 32.8 33 0.6 13 13 VRB 3 6 29.54 1000 10 16 0.00 0.00
5:33 pm 17:33 Mostly Cloudy 92 33.3 33 0.6 12 12 NW 3 6 29.53 1000 10 16 0.00 0.00
5:56 pm 17:56 Partly Cloudy 89 31.7 35 1.7 15 15 S 13 20 29.78 1009 10 16 0.00 0.00
6:56 pm 18:56 Partly Cloudy 84 28.9 35 1.7 17 17 SSW 7 11 29.79 1009 10 16 0.00 0.00
7:56 pm 19:56 Mostly Clear 75 23.9 35 1.7 23 23 ESE 7 11 29.81 1010 10 16 0.00 0.00
8:56 pm 20:56 Clear 71 21.7 38 3.3 30 30 Calm 29.82 1010 10 16 0.00 0.00
9:56 pm 21:56 Clear 65 18.3 34 1.1 32 32 SSE 3 6 29.85 1011 10 16 0.00 0.00
10:56 pm 22:56 Clear 61 16.1 36 2.2 39 39 SSE 7 11 29.85 1011 10 16 0.00 0.00
11:56 pm 23:56 Clear 59 15 35 1.7 41 41 Calm 29.85 1011 10 16 0.00 0.00

Powered by AerisWeather